Year,Month,Day,Hour,Minute,Value (Times are PST for temperature in C)
2013,08,16,00,02,13.20
2013,08,16,00,03,13.20
2013,08,16,00,04,13.20
2013,08,16,00,05,13.20
2013,08,16,00,06,13.20
2013,08,16,00,08,13.20
2013,08,16,00,09,13.20
2013,08,16,00,10,13.20
2013,08,16,00,12,13.20
2013,08,16,00,13,13.20
2013,08,16,00,14,13.20
2013,08,16,00,15,13.20
2013,08,16,00,17,13.20
2013,08,16,00,18,13.20
2013,08,16,00,19,13.20
2013,08,16,00,20,13.20
2013,08,16,00,21,13.20
2013,08,16,00,23,13.20
2013,08,16,00,24,13.20
2013,08,16,00,25,13.20
2013,08,16,00,26,13.20
2013,08,16,00,27,13.20
2013,08,16,00,29,13.10
2013,08,16,00,30,13.10
2013,08,16,00,31,13.10
2013,08,16,00,33,13.10
2013,08,16,00,34,13.10
2013,08,16,00,35,13.20
2013,08,16,00,36,13.20
2013,08,16,00,38,13.30
2013,08,16,00,39,13.40
2013,08,16,00,40,13.40
2013,08,16,00,41,13.50
2013,08,16,00,43,13.50
2013,08,16,00,44,13.40
2013,08,16,00,45,13.40
2013,08,16,00,46,13.40
2013,08,16,00,48,13.40
2013,08,16,00,49,13.40
2013,08,16,00,50,13.40
2013,08,16,00,52,13.40
2013,08,16,00,53,13.40
2013,08,16,00,54,13.40
2013,08,16,00,55,13.40
2013,08,16,00,57,13.40
2013,08,16,00,58,13.30
2013,08,16,00,59,13.30
2013,08,16,01,00,13.30
2013,08,16,01,02,13.30
2013,08,16,01,03,13.30
2013,08,16,01,04,13.30
2013,08,16,01,05,13.20
2013,08,16,01,07,13.20
2013,08,16,01,08,13.10
2013,08,16,01,09,13.10
2013,08,16,01,10,13.00
2013,08,16,01,12,12.90
2013,08,16,01,13,12.90
2013,08,16,01,14,12.90
2013,08,16,01,15,12.80
2013,08,16,01,16,12.80
2013,08,16,01,17,12.80
2013,08,16,01,18,12.80
2013,08,16,01,19,12.80
2013,08,16,01,21,12.70
2013,08,16,01,22,12.70
2013,08,16,01,23,12.70
2013,08,16,01,25,12.70
2013,08,16,01,26,12.70
2013,08,16,01,27,12.70
2013,08,16,01,30,12.70
2013,08,16,01,31,12.70
2013,08,16,01,32,12.70
2013,08,16,01,33,12.70
2013,08,16,01,35,12.70
2013,08,16,01,36,12.70
2013,08,16,01,37,12.70
2013,08,16,01,38,12.70
2013,08,16,01,40,12.70
2013,08,16,01,41,12.70
2013,08,16,01,42,12.60
2013,08,16,01,43,12.60
2013,08,16,01,44,12.60
2013,08,16,01,46,12.50
2013,08,16,01,47,12.40
2013,08,16,01,48,12.40
2013,08,16,01,49,12.40
2013,08,16,01,51,12.40
2013,08,16,01,52,12.40
2013,08,16,01,53,12.40
2013,08,16,01,54,12.40
2013,08,16,01,56,12.40
2013,08,16,01,57,12.40
2013,08,16,01,58,12.40
2013,08,16,01,59,12.40
2013,08,16,02,00,12.40
2013,08,16,02,01,12.40
2013,08,16,02,02,12.40
2013,08,16,02,03,12.40
2013,08,16,02,04,12.40
2013,08,16,02,06,12.40
2013,08,16,02,07,12.40
2013,08,16,02,08,12.40
2013,08,16,02,09,12.40
2013,08,16,02,11,12.40
2013,08,16,02,12,12.40
2013,08,16,02,13,12.40
2013,08,16,02,14,12.30
2013,08,16,02,16,12.30
2013,08,16,02,17,12.30
2013,08,16,02,18,12.30
2013,08,16,02,19,12.30
2013,08,16,02,20,12.30
2013,08,16,02,22,12.30
2013,08,16,02,23,12.30
2013,08,16,02,24,12.30
2013,08,16,02,25,12.30
2013,08,16,02,26,12.30
2013,08,16,02,28,12.30
2013,08,16,02,29,12.30
2013,08,16,02,30,12.30
2013,08,16,02,31,12.30
2013,08,16,02,33,12.30
2013,08,16,02,34,12.30
2013,08,16,02,35,12.30
2013,08,16,02,36,12.30
2013,08,16,02,37,12.30
2013,08,16,02,39,12.30
2013,08,16,02,40,12.30
2013,08,16,02,41,12.30
2013,08,16,02,42,12.30
2013,08,16,02,44,12.30
2013,08,16,02,45,12.20
2013,08,16,02,46,12.20
2013,08,16,02,47,12.20
2013,08,16,02,49,12.10
2013,08,16,02,50,12.10
2013,08,16,02,51,12.10
2013,08,16,02,52,12.10
2013,08,16,02,54,12.00
2013,08,16,02,55,12.00
2013,08,16,02,56,11.90
2013,08,16,02,58,11.90
2013,08,16,02,59,11.90
2013,08,16,03,00,11.80
2013,08,16,03,01,11.80
2013,08,16,03,03,11.80
2013,08,16,03,04,11.80
2013,08,16,03,05,11.80
2013,08,16,03,06,11.80
2013,08,16,03,08,11.80
2013,08,16,03,09,11.80
2013,08,16,03,10,11.80
2013,08,16,03,12,11.80
2013,08,16,03,13,11.80
2013,08,16,03,14,11.80
2013,08,16,03,15,11.80
2013,08,16,03,16,11.90
2013,08,16,03,18,11.80
2013,08,16,03,19,11.80
2013,08,16,03,20,11.80
2013,08,16,03,21,11.80
2013,08,16,03,23,11.80
2013,08,16,03,24,11.80
2013,08,16,03,25,11.80
2013,08,16,03,26,11.80
2013,08,16,03,28,11.80
2013,08,16,03,29,11.80
2013,08,16,03,30,11.80
2013,08,16,03,32,11.80
2013,08,16,03,33,11.80
2013,08,16,03,34,11.80
2013,08,16,03,37,11.80
2013,08,16,03,38,11.80
2013,08,16,03,39,11.80
2013,08,16,03,41,11.80
2013,08,16,03,42,11.80
2013,08,16,03,43,11.80
2013,08,16,03,45,11.80
2013,08,16,03,46,11.80
2013,08,16,03,47,11.80
2013,08,16,03,49,11.80
2013,08,16,03,50,11.80
2013,08,16,03,51,11.70
2013,08,16,03,52,11.70
2013,08,16,03,54,11.70
2013,08,16,03,55,11.70
2013,08,16,03,56,11.70
2013,08,16,03,58,11.80
2013,08,16,03,59,11.80
2013,08,16,04,00,11.80
2013,08,16,04,02,11.80
2013,08,16,04,03,11.80
2013,08,16,04,04,11.80
2013,08,16,04,05,11.80
2013,08,16,04,06,11.80
2013,08,16,04,07,11.80
2013,08,16,04,08,11.80
2013,08,16,04,09,11.80
2013,08,16,04,10,11.80
2013,08,16,04,12,11.80
2013,08,16,04,13,11.80
2013,08,16,04,14,11.80
2013,08,16,04,16,11.80
2013,08,16,04,17,11.80
2013,08,16,04,18,11.80
2013,08,16,04,19,11.80
2013,08,16,04,20,11.80
2013,08,16,04,21,11.80
2013,08,16,04,22,11.80
2013,08,16,04,23,11.80
2013,08,16,04,25,11.80
2013,08,16,04,26,11.80
2013,08,16,04,27,11.70
2013,08,16,04,28,11.70
2013,08,16,04,30,11.70
2013,08,16,04,31,11.70
2013,08,16,04,32,11.70
2013,08,16,04,33,11.70
2013,08,16,04,34,11.70
2013,08,16,04,36,11.80
2013,08,16,04,37,11.80
2013,08,16,04,38,11.80
2013,08,16,04,39,11.80
2013,08,16,04,41,11.80
2013,08,16,04,42,11.80
2013,08,16,04,43,11.80
2013,08,16,04,44,11.80
2013,08,16,04,46,11.80
2013,08,16,04,47,11.80
2013,08,16,04,48,11.80
2013,08,16,04,49,11.80
2013,08,16,04,51,11.80
2013,08,16,04,52,11.80
2013,08,16,04,53,11.80
2013,08,16,04,54,11.80
2013,08,16,04,55,11.80
2013,08,16,04,56,11.90
2013,08,16,04,57,11.90
2013,08,16,04,58,11.90
2013,08,16,04,59,11.90
2013,08,16,05,01,11.90
2013,08,16,05,02,12.00
2013,08,16,05,03,12.10
2013,08,16,05,04,12.10
2013,08,16,05,06,12.20
2013,08,16,05,07,12.20
2013,08,16,05,08,12.20
2013,08,16,05,09,12.20
2013,08,16,05,11,12.30
2013,08,16,05,12,12.30
2013,08,16,05,13,12.40
2013,08,16,05,14,12.40
2013,08,16,05,16,12.40
2013,08,16,05,17,12.40
2013,08,16,05,18,12.40
2013,08,16,05,19,12.40
2013,08,16,05,21,12.30
2013,08,16,05,22,12.30
2013,08,16,05,23,12.30
2013,08,16,05,25,12.20
2013,08,16,05,26,12.20
2013,08,16,05,27,12.10
2013,08,16,05,28,12.10
2013,08,16,05,30,12.10
2013,08,16,05,31,12.00
2013,08,16,05,32,11.90
2013,08,16,05,33,11.90
2013,08,16,05,35,11.90
2013,08,16,05,36,11.80
2013,08,16,05,37,11.80
2013,08,16,05,38,11.80
2013,08,16,05,40,11.80
2013,08,16,05,41,11.80
2013,08,16,05,42,11.80
2013,08,16,05,44,11.80
2013,08,16,05,45,11.80
2013,08,16,05,46,11.80
2013,08,16,05,47,11.80
2013,08,16,05,49,11.80
2013,08,16,05,50,11.70
2013,08,16,05,51,11.70
2013,08,16,05,52,11.70
2013,08,16,05,53,11.70
2013,08,16,05,54,11.70
2013,08,16,05,55,11.60
2013,08,16,05,56,11.60
2013,08,16,05,57,11.60
2013,08,16,05,59,11.60
2013,08,16,06,00,11.60
2013,08,16,06,01,11.50
2013,08,16,06,02,11.50
2013,08,16,06,03,11.40
2013,08,16,06,05,11.40
2013,08,16,06,06,11.40
2013,08,16,06,07,11.40
2013,08,16,06,08,11.40
2013,08,16,06,09,11.40
2013,08,16,06,10,11.40
2013,08,16,06,11,11.40
2013,08,16,06,12,11.40
2013,08,16,06,13,11.40
2013,08,16,06,15,11.40
2013,08,16,06,16,11.40
2013,08,16,06,17,11.40
2013,08,16,06,19,11.40
2013,08,16,06,20,11.40
2013,08,16,06,21,11.40
2013,08,16,06,22,11.40
2013,08,16,06,24,11.50
2013,08,16,06,25,11.50
2013,08,16,06,26,11.50
2013,08,16,06,27,11.50
2013,08,16,06,29,11.50
2013,08,16,06,30,11.50
2013,08,16,06,31,11.50
2013,08,16,06,32,11.50
2013,08,16,06,34,11.50
2013,08,16,06,35,11.50
2013,08,16,06,36,11.60
2013,08,16,06,37,11.60
2013,08,16,06,38,11.60
2013,08,16,06,40,11.60
2013,08,16,06,41,11.70
2013,08,16,06,42,11.70
2013,08,16,06,43,11.70
2013,08,16,06,44,11.80
2013,08,16,06,46,11.80
2013,08,16,06,47,11.80
2013,08,16,06,48,11.80
2013,08,16,06,49,11.80
2013,08,16,06,51,11.90
2013,08,16,06,52,11.90
2013,08,16,06,53,11.90
2013,08,16,06,54,11.90
2013,08,16,06,56,11.90
2013,08,16,06,57,11.90
2013,08,16,06,59,12.00
2013,08,16,07,00,12.10
2013,08,16,07,01,12.10
2013,08,16,07,02,12.10
2013,08,16,07,04,12.10
2013,08,16,07,05,12.10
2013,08,16,07,06,12.20
2013,08,16,07,07,12.20
2013,08,16,07,09,12.20
2013,08,16,07,11,12.20
2013,08,16,07,12,12.20
2013,08,16,07,13,12.20
2013,08,16,07,15,12.30
2013,08,16,07,16,12.30
2013,08,16,07,17,12.30
2013,08,16,07,19,12.30
2013,08,16,07,20,12.30
2013,08,16,07,21,12.40
2013,08,16,07,23,12.40
2013,08,16,07,24,12.40
2013,08,16,07,25,12.50
2013,08,16,07,27,12.50
2013,08,16,07,28,12.60
2013,08,16,07,29,12.60
2013,08,16,07,30,12.70
2013,08,16,07,32,12.70
2013,08,16,07,33,12.70
2013,08,16,07,34,12.80
2013,08,16,07,35,12.80
2013,08,16,07,36,12.80
2013,08,16,07,38,12.90
2013,08,16,07,39,12.90
2013,08,16,07,40,12.90
2013,08,16,07,41,13.00
2013,08,16,07,43,13.00
2013,08,16,07,44,13.10
2013,08,16,07,45,13.10
2013,08,16,07,46,13.10
2013,08,16,07,47,13.10
2013,08,16,07,48,13.20
2013,08,16,07,49,13.20
2013,08,16,07,50,13.20
2013,08,16,07,51,13.20
2013,08,16,07,53,13.30
2013,08,16,07,54,13.30
2013,08,16,07,55,13.30
2013,08,16,07,56,13.30
2013,08,16,07,57,13.30
2013,08,16,07,58,13.30
2013,08,16,07,59,13.40
2013,08,16,08,00,13.40
2013,08,16,08,02,13.40
2013,08,16,08,03,13.40
2013,08,16,08,04,13.40
2013,08,16,08,05,13.50
2013,08,16,08,07,13.60
2013,08,16,08,08,13.60
2013,08,16,08,09,13.60
2013,08,16,08,10,13.70
2013,08,16,08,12,13.70
2013,08,16,08,13,13.70
2013,08,16,08,14,13.80
2013,08,16,08,15,13.80
2013,08,16,08,16,13.80
2013,08,16,08,18,13.80
2013,08,16,08,19,13.90
2013,08,16,08,20,13.90
2013,08,16,08,22,13.90
2013,08,16,08,23,13.90
2013,08,16,08,24,14.00
2013,08,16,08,25,14.00
2013,08,16,08,26,14.10
2013,08,16,08,28,14.10
2013,08,16,08,29,14.10
2013,08,16,08,30,14.10
2013,08,16,08,31,14.10
2013,08,16,08,32,14.20
2013,08,16,08,33,14.20
2013,08,16,08,34,14.20
2013,08,16,08,36,14.20
2013,08,16,08,37,14.20
2013,08,16,08,38,14.20
2013,08,16,08,39,14.30
2013,08,16,08,40,14.30
2013,08,16,08,41,14.30
2013,08,16,08,43,14.30
2013,08,16,08,44,14.30
2013,08,16,08,45,14.30
2013,08,16,08,46,14.30
2013,08,16,08,47,14.30
2013,08,16,08,48,14.30
2013,08,16,08,49,14.30
2013,08,16,08,50,14.30
2013,08,16,08,52,14.30
2013,08,16,08,53,14.30
2013,08,16,08,54,14.30
2013,08,16,08,55,14.40
2013,08,16,08,57,14.40
2013,08,16,08,58,14.40
2013,08,16,08,59,14.40
2013,08,16,09,00,14.50
2013,08,16,09,02,14.50
2013,08,16,09,03,14.60
2013,08,16,09,04,14.60
2013,08,16,09,05,14.70
2013,08,16,09,07,14.70
2013,08,16,09,08,14.80
2013,08,16,09,09,14.80
2013,08,16,09,10,14.80
2013,08,16,09,11,14.80
2013,08,16,09,12,14.80
2013,08,16,09,13,14.80
2013,08,16,09,14,14.90
2013,08,16,09,16,14.90
2013,08,16,09,17,15.00
2013,08,16,09,18,15.00
2013,08,16,09,19,15.00
2013,08,16,09,21,15.00
2013,08,16,09,22,15.00
2013,08,16,09,23,15.10
2013,08,16,09,24,15.00
2013,08,16,09,26,15.10
2013,08,16,09,27,15.10
2013,08,16,09,28,15.10
2013,08,16,09,29,15.10
2013,08,16,09,31,15.10
2013,08,16,09,32,15.20
2013,08,16,09,33,15.20
2013,08,16,09,35,15.20
2013,08,16,09,36,15.20
2013,08,16,09,37,15.30
2013,08,16,09,38,15.30
2013,08,16,09,40,15.30
2013,08,16,09,41,15.30
2013,08,16,09,42,15.30
2013,08,16,09,43,15.30
2013,08,16,09,45,15.30
2013,08,16,09,46,15.30
2013,08,16,09,47,15.30
2013,08,16,09,48,15.30
2013,08,16,09,49,15.30
2013,08,16,09,51,15.30
2013,08,16,09,52,15.20
2013,08,16,09,53,15.20
2013,08,16,09,54,15.20
2013,08,16,09,55,15.20
2013,08,16,09,56,15.20
2013,08,16,09,57,15.20
2013,08,16,09,58,15.20
2013,08,16,09,59,15.20
2013,08,16,10,00,15.20
2013,08,16,10,01,15.20
2013,08,16,10,02,15.20
2013,08,16,10,03,15.20
2013,08,16,10,04,15.30
2013,08,16,10,05,15.30
2013,08,16,10,07,15.30
2013,08,16,10,08,15.40
2013,08,16,10,09,15.40
2013,08,16,10,10,15.40
2013,08,16,10,12,15.40
2013,08,16,10,13,15.40
2013,08,16,10,14,15.40
2013,08,16,10,15,15.50
2013,08,16,10,17,15.60
2013,08,16,10,18,15.60
2013,08,16,10,19,15.70
2013,08,16,10,20,15.70
2013,08,16,10,21,15.70
2013,08,16,10,22,15.70
2013,08,16,10,23,15.80
2013,08,16,10,24,15.80
2013,08,16,10,25,15.80
2013,08,16,10,27,15.80
2013,08,16,10,28,15.90
2013,08,16,10,29,15.90
2013,08,16,10,30,15.90
2013,08,16,10,31,15.90
2013,08,16,10,32,15.90
2013,08,16,10,33,15.90
2013,08,16,10,34,15.90
2013,08,16,10,35,15.90
2013,08,16,10,37,15.90
2013,08,16,10,38,15.90
2013,08,16,10,39,15.90
2013,08,16,10,40,15.90
2013,08,16,10,42,15.90
2013,08,16,10,43,15.90
2013,08,16,10,44,15.90
2013,08,16,10,45,15.90
2013,08,16,10,47,15.90
2013,08,16,10,48,15.90
2013,08,16,10,49,15.90
2013,08,16,10,50,15.90
2013,08,16,10,52,15.90
2013,08,16,10,53,15.90
2013,08,16,10,54,15.90
2013,08,16,10,55,16.00
2013,08,16,10,57,16.00
2013,08,16,10,58,16.00
2013,08,16,10,59,16.00
2013,08,16,11,00,16.00
2013,08,16,11,02,16.00
2013,08,16,11,03,16.00
2013,08,16,11,04,16.00
2013,08,16,11,05,16.00
2013,08,16,11,07,16.00
2013,08,16,11,08,16.00
2013,08,16,11,09,16.10
2013,08,16,11,10,16.10
2013,08,16,11,12,16.00
2013,08,16,11,13,16.00
2013,08,16,11,14,16.00
2013,08,16,11,15,16.00
2013,08,16,11,17,16.10
2013,08,16,11,18,16.10
2013,08,16,11,19,16.20
2013,08,16,11,20,16.20
2013,08,16,11,22,16.20
2013,08,16,11,23,16.30
2013,08,16,11,24,16.30
2013,08,16,11,25,16.30
2013,08,16,11,27,16.30
2013,08,16,11,30,16.30
2013,08,16,11,31,16.30
2013,08,16,11,32,16.40
2013,08,16,11,33,16.30
2013,08,16,11,34,16.40
2013,08,16,11,35,16.40
2013,08,16,11,36,16.40
2013,08,16,11,37,16.40
2013,08,16,11,38,16.40
2013,08,16,11,39,16.40
2013,08,16,11,40,16.40
2013,08,16,11,41,16.40
2013,08,16,11,42,16.50
2013,08,16,11,43,16.60
2013,08,16,11,44,16.60
2013,08,16,11,45,16.60
2013,08,16,11,46,16.70
2013,08,16,11,47,16.70
2013,08,16,11,48,16.80
2013,08,16,11,49,16.80
2013,08,16,11,50,16.80
2013,08,16,11,51,16.90
2013,08,16,11,52,17.00
2013,08,16,11,53,17.10
2013,08,16,11,54,17.20
2013,08,16,11,55,17.20
2013,08,16,11,56,17.30
2013,08,16,11,57,17.30
2013,08,16,11,58,17.30
2013,08,16,11,59,17.30
2013,08,16,12,00,17.30
2013,08,16,12,01,17.30
2013,08,16,12,02,17.40
2013,08,16,12,03,17.40
2013,08,16,12,04,17.50
2013,08,16,12,05,17.60
2013,08,16,12,06,17.70
2013,08,16,12,07,17.70
2013,08,16,12,08,17.80
2013,08,16,12,09,17.90
2013,08,16,12,10,18.00
2013,08,16,12,11,18.00
2013,08,16,12,12,18.10
2013,08,16,12,13,18.10
2013,08,16,12,14,18.10
2013,08,16,12,15,18.00
2013,08,16,12,16,18.00
2013,08,16,12,17,18.00
2013,08,16,12,18,18.10
2013,08,16,12,19,18.10
2013,08,16,12,20,18.20
2013,08,16,12,21,18.20
2013,08,16,12,22,18.30
2013,08,16,12,23,18.30
2013,08,16,12,24,18.40
2013,08,16,12,25,18.40
2013,08,16,12,26,18.50
2013,08,16,12,27,18.60
2013,08,16,12,28,18.60
2013,08,16,12,29,18.60
2013,08,16,12,30,18.60
2013,08,16,12,31,18.60
2013,08,16,12,32,18.60
2013,08,16,12,34,18.60
2013,08,16,12,35,18.60
2013,08,16,12,36,18.50
2013,08,16,12,37,18.50
2013,08,16,12,39,18.50
2013,08,16,12,40,18.50
2013,08,16,12,41,18.50
2013,08,16,12,42,18.50
2013,08,16,12,44,18.40
2013,08,16,12,45,18.40
2013,08,16,12,46,18.50
2013,08,16,12,48,18.60
2013,08,16,12,49,18.60
2013,08,16,12,50,18.70
2013,08,16,12,51,18.70
2013,08,16,12,52,18.70
2013,08,16,12,53,18.80
2013,08,16,12,54,18.90
2013,08,16,12,55,18.90
2013,08,16,12,57,19.00
2013,08,16,12,58,19.10
2013,08,16,12,59,19.20
2013,08,16,13,00,19.20
2013,08,16,13,02,19.20
2013,08,16,13,03,19.30
2013,08,16,13,04,19.30
2013,08,16,13,06,19.40
2013,08,16,13,07,19.60
2013,08,16,13,08,19.60
2013,08,16,13,10,19.60
2013,08,16,13,11,19.70
2013,08,16,13,12,19.70
2013,08,16,13,13,19.70
2013,08,16,13,15,19.80
2013,08,16,13,16,19.80
2013,08,16,13,17,20.10
2013,08,16,13,18,20.20
2013,08,16,13,19,20.20
2013,08,16,13,21,20.30
2013,08,16,13,22,20.30
2013,08,16,13,23,20.40
2013,08,16,13,24,20.50
2013,08,16,13,26,20.60
2013,08,16,13,27,20.70
2013,08,16,13,29,20.80
2013,08,16,13,31,20.80
2013,08,16,13,32,20.90
2013,08,16,13,33,21.00
2013,08,16,13,34,21.20
2013,08,16,13,36,21.20
2013,08,16,13,37,21.30
2013,08,16,13,38,21.30
2013,08,16,13,40,21.30
2013,08,16,13,41,21.30
2013,08,16,13,42,21.20
2013,08,16,13,44,21.20
2013,08,16,13,45,21.20
2013,08,16,13,46,21.30
2013,08,16,13,47,21.40
2013,08,16,13,48,21.40
2013,08,16,13,49,21.50
2013,08,16,13,51,21.50
2013,08,16,13,52,21.50
2013,08,16,13,53,21.50
2013,08,16,13,54,21.50
2013,08,16,13,56,21.40
2013,08,16,13,57,21.30
2013,08,16,13,58,21.30
2013,08,16,13,59,21.30
2013,08,16,14,00,21.20
2013,08,16,14,01,21.10
2013,08,16,14,02,21.00
2013,08,16,14,03,20.90
2013,08,16,14,05,20.80
2013,08,16,14,06,20.90
2013,08,16,14,07,20.80
2013,08,16,14,08,20.70
2013,08,16,14,10,20.60
2013,08,16,14,11,20.50
2013,08,16,14,12,20.40
2013,08,16,14,14,20.40
2013,08,16,14,15,20.40
2013,08,16,14,16,20.40
2013,08,16,14,17,20.50
2013,08,16,14,18,20.50
2013,08,16,14,20,20.60
2013,08,16,14,21,20.60
2013,08,16,14,22,20.60
2013,08,16,14,23,20.70
2013,08,16,14,24,20.80
2013,08,16,14,27,20.80
2013,08,16,14,28,20.80
2013,08,16,14,29,20.80
2013,08,16,14,32,20.90
2013,08,16,14,33,21.10
2013,08,16,14,34,21.20
2013,08,16,14,35,21.20
2013,08,16,14,37,21.30
2013,08,16,14,38,21.30
2013,08,16,14,39,21.30
2013,08,16,14,40,21.30
2013,08,16,14,41,21.30
2013,08,16,14,43,21.40
2013,08,16,14,44,21.40
2013,08,16,14,45,21.40
2013,08,16,14,46,21.50
2013,08,16,14,48,21.60
2013,08,16,14,49,21.60
2013,08,16,14,50,21.70
2013,08,16,14,51,21.70
2013,08,16,14,53,21.80
2013,08,16,14,54,21.80
2013,08,16,14,55,21.80
2013,08,16,14,57,21.80
2013,08,16,14,58,21.80
2013,08,16,14,59,22.00
2013,08,16,15,00,22.10
2013,08,16,15,02,22.20
2013,08,16,15,03,22.30
2013,08,16,15,04,22.40
2013,08,16,15,07,22.60
2013,08,16,15,08,22.80
2013,08,16,15,09,22.80
2013,08,16,15,11,22.80
2013,08,16,15,12,22.70
2013,08,16,15,13,22.60
2013,08,16,15,14,22.60
2013,08,16,15,16,22.60
2013,08,16,15,17,22.60
2013,08,16,15,18,22.70
2013,08,16,15,19,22.70
2013,08,16,15,22,22.80
2013,08,16,15,23,22.90
2013,08,16,15,24,22.90
2013,08,16,15,25,23.00
2013,08,16,15,27,23.10
2013,08,16,15,28,23.20
2013,08,16,15,29,23.30
2013,08,16,15,31,23.40
2013,08,16,15,32,23.40
2013,08,16,15,33,23.50
2013,08,16,15,34,23.60
2013,08,16,15,36,23.70
2013,08,16,15,37,23.70
2013,08,16,15,38,23.80
2013,08,16,15,40,23.80
2013,08,16,15,41,23.80
2013,08,16,15,42,23.80
2013,08,16,15,43,23.90
2013,08,16,15,44,23.90
2013,08,16,15,46,23.80
2013,08,16,15,47,23.70
2013,08,16,15,48,23.60
2013,08,16,15,49,23.40
2013,08,16,15,50,23.30
2013,08,16,15,52,23.20
2013,08,16,15,53,23.20
2013,08,16,15,54,23.20
2013,08,16,15,55,23.20
2013,08,16,15,57,23.20
2013,08,16,15,58,23.20
2013,08,16,15,59,23.20
2013,08,16,16,00,23.30
2013,08,16,16,01,23.30
2013,08,16,16,02,23.30
2013,08,16,16,03,23.30
2013,08,16,16,04,23.30
2013,08,16,16,06,23.30
2013,08,16,16,07,23.20
2013,08,16,16,08,23.20
2013,08,16,16,09,23.10
2013,08,16,16,11,23.10
2013,08,16,16,12,23.10
2013,08,16,16,13,23.10
2013,08,16,16,14,23.10
2013,08,16,16,16,23.20
2013,08,16,16,17,23.20
2013,08,16,16,19,23.30
2013,08,16,16,20,23.30
2013,08,16,16,21,23.30
2013,08,16,16,23,23.40
2013,08,16,16,24,23.30
2013,08,16,16,25,23.20
2013,08,16,16,26,23.20
2013,08,16,16,28,23.10
2013,08,16,16,29,22.90
2013,08,16,16,30,22.80
2013,08,16,16,31,22.60
2013,08,16,16,33,22.50
2013,08,16,16,34,22.30
2013,08,16,16,35,22.20
2013,08,16,16,36,22.10
2013,08,16,16,38,22.10
2013,08,16,16,39,21.90
2013,08,16,16,40,21.90
2013,08,16,16,41,21.90
2013,08,16,16,42,21.90
2013,08,16,16,43,21.90
2013,08,16,16,44,21.90
2013,08,16,16,46,22.00
2013,08,16,16,47,22.10
2013,08,16,16,49,22.10
2013,08,16,16,50,22.20
2013,08,16,16,51,22.20
2013,08,16,16,52,22.20
2013,08,16,16,54,22.20
2013,08,16,16,55,22.10
2013,08,16,16,56,22.00
2013,08,16,16,57,21.90
2013,08,16,16,59,21.90
2013,08,16,17,00,21.90
2013,08,16,17,01,21.90
2013,08,16,17,02,21.90
2013,08,16,17,03,22.10
2013,08,16,17,04,22.10
2013,08,16,17,06,22.10
2013,08,16,17,07,22.10
2013,08,16,17,08,22.10
2013,08,16,17,09,22.10
2013,08,16,17,11,22.10
2013,08,16,17,12,22.10
2013,08,16,17,13,22.10
2013,08,16,17,14,22.10
2013,08,16,17,16,22.10
2013,08,16,17,17,22.10
2013,08,16,17,18,22.00
2013,08,16,17,19,21.90
2013,08,16,17,21,21.80
2013,08,16,17,22,21.80
2013,08,16,17,23,21.70
2013,08,16,17,24,21.70
2013,08,16,17,26,21.70
2013,08,16,17,27,21.80
2013,08,16,17,28,21.70
2013,08,16,17,29,21.70
2013,08,16,17,30,21.70
2013,08,16,17,31,21.60
2013,08,16,17,32,21.70
2013,08,16,17,33,21.70
2013,08,16,17,34,21.70
2013,08,16,17,36,21.70
2013,08,16,17,37,21.70
2013,08,16,17,38,21.70
2013,08,16,17,39,21.60
2013,08,16,17,40,21.60
2013,08,16,17,41,21.60
2013,08,16,17,42,21.60
2013,08,16,17,43,21.60
2013,08,16,17,44,21.70
2013,08,16,17,45,21.70
2013,08,16,17,46,21.70
2013,08,16,17,47,21.80
2013,08,16,17,48,21.80
2013,08,16,17,49,21.80
2013,08,16,17,50,21.80
2013,08,16,17,51,21.70
2013,08,16,17,52,21.60
2013,08,16,17,53,21.60
2013,08,16,17,54,21.60
2013,08,16,17,55,21.60
2013,08,16,17,56,21.50
2013,08,16,17,57,21.50
2013,08,16,17,58,21.60
2013,08,16,17,59,21.60
2013,08,16,18,00,21.60
2013,08,16,18,01,21.70
2013,08,16,18,02,21.70
2013,08,16,18,03,21.80
2013,08,16,18,04,21.80
2013,08,16,18,05,21.80
2013,08,16,18,06,21.80
2013,08,16,18,08,21.90
2013,08,16,18,09,21.90
2013,08,16,18,10,22.00
2013,08,16,18,11,22.10
2013,08,16,18,12,22.10
2013,08,16,18,13,22.10
2013,08,16,18,14,22.10
2013,08,16,18,15,22.10
2013,08,16,18,16,22.00
2013,08,16,18,17,21.90
2013,08,16,18,18,21.90
2013,08,16,18,19,21.90
2013,08,16,18,20,21.80
2013,08,16,18,21,21.80
2013,08,16,18,22,21.80
2013,08,16,18,23,21.80
2013,08,16,18,24,21.80
2013,08,16,18,26,21.80
2013,08,16,18,27,21.80
2013,08,16,18,28,21.80
2013,08,16,18,29,21.80
2013,08,16,18,30,21.80
2013,08,16,18,31,21.80
2013,08,16,18,33,21.80
2013,08,16,18,34,21.80
2013,08,16,18,35,21.80
2013,08,16,18,36,21.70
2013,08,16,18,37,21.70
2013,08,16,18,38,21.70
2013,08,16,18,39,21.60
2013,08,16,18,40,21.50
2013,08,16,18,42,21.40
2013,08,16,18,43,21.40
2013,08,16,18,44,21.30
2013,08,16,18,45,21.20
2013,08,16,18,47,21.20
2013,08,16,18,48,21.20
2013,08,16,18,49,21.20
2013,08,16,18,50,21.20
2013,08,16,18,51,21.20
2013,08,16,18,53,21.20
2013,08,16,18,54,21.30
2013,08,16,18,55,21.30
2013,08,16,18,57,21.30
2013,08,16,18,58,21.30
2013,08,16,18,59,21.30
2013,08,16,19,00,21.30
2013,08,16,19,01,21.30
2013,08,16,19,02,21.30
2013,08,16,19,03,21.40
2013,08,16,19,04,21.40
2013,08,16,19,06,21.40
2013,08,16,19,07,21.40
2013,08,16,19,08,21.40
2013,08,16,19,09,21.40
2013,08,16,19,11,21.40
2013,08,16,19,12,21.40
2013,08,16,19,13,21.30
2013,08,16,19,14,21.30
2013,08,16,19,16,21.40
2013,08,16,19,17,21.40
2013,08,16,19,18,21.40
2013,08,16,19,20,21.40
2013,08,16,19,21,21.40
2013,08,16,19,22,21.40
2013,08,16,19,23,21.40
2013,08,16,19,24,21.40
2013,08,16,19,26,21.40
2013,08,16,19,27,21.40
2013,08,16,19,29,21.40
2013,08,16,19,31,21.40
2013,08,16,19,32,21.40
2013,08,16,19,33,21.40
2013,08,16,19,34,21.40
2013,08,16,19,36,21.40
2013,08,16,19,37,21.40
2013,08,16,19,38,21.30
2013,08,16,19,39,21.40
2013,08,16,19,42,21.30
2013,08,16,19,43,21.30
2013,08,16,19,44,21.30
2013,08,16,19,45,21.30
2013,08,16,19,47,21.30
2013,08,16,19,48,21.30
2013,08,16,19,49,21.30
2013,08,16,19,51,21.30
2013,08,16,19,52,21.40
2013,08,16,19,53,21.40
2013,08,16,19,54,21.40
2013,08,16,19,55,21.40
2013,08,16,19,57,21.40
2013,08,16,19,58,21.40
2013,08,16,19,59,21.40
2013,08,16,20,01,21.40
2013,08,16,20,02,21.50
2013,08,16,20,03,21.50
2013,08,16,20,04,21.50
2013,08,16,20,05,21.50
2013,08,16,20,07,21.50
2013,08,16,20,08,21.50
2013,08,16,20,09,21.60
2013,08,16,20,12,21.60
2013,08,16,20,13,21.60
2013,08,16,20,14,21.60
2013,08,16,20,16,21.60
2013,08,16,20,18,21.50
2013,08,16,20,19,21.50
2013,08,16,20,21,21.50
2013,08,16,20,23,21.50
2013,08,16,20,24,21.50
2013,08,16,20,26,21.60
2013,08,16,20,28,21.60
2013,08,16,20,29,21.60
2013,08,16,20,30,21.60
2013,08,16,20,31,21.60
2013,08,16,20,33,21.60
2013,08,16,20,34,21.60
2013,08,16,20,35,21.60
2013,08,16,20,36,21.60
2013,08,16,20,37,21.60
2013,08,16,20,38,21.60
2013,08,16,20,39,21.60
2013,08,16,20,40,21.60
2013,08,16,20,41,21.60
2013,08,16,20,42,21.60
2013,08,16,20,43,21.60
2013,08,16,20,44,21.60
2013,08,16,20,45,21.60
2013,08,16,20,46,21.60
2013,08,16,20,47,21.50
2013,08,16,20,48,21.50
2013,08,16,20,49,21.50
2013,08,16,20,51,21.40
2013,08,16,20,52,21.40
2013,08,16,20,53,21.40
2013,08,16,20,54,21.40
2013,08,16,20,55,21.40
2013,08,16,20,56,21.40
2013,08,16,20,57,21.40
2013,08,16,20,59,21.40
2013,08,16,21,00,21.40
2013,08,16,21,01,21.40
2013,08,16,21,02,21.40
2013,08,16,21,03,21.40
2013,08,16,21,04,21.30
2013,08,16,21,05,21.30